Location: Newark
(7.0858°N, 171.3717°E)
Time: 02:10:30
(UTC+00:00)

Transit 4A - Pass Details

Date: 26 November 2020
Orbit: 864 x 980 km, 66.8° (Epoch: 20 January)

Event Time Altitude Azimuth Distance (km) Brightness Sun altitude
Rises 06:13:57 0° 6° (N) 3,609 10.7 -0.7°
Reaches altitude 10° 06:17:21 10° 24° (NNE) 2,644 9.9 -1.5°
Maximum altitude 06:21:29 19° 67° (ENE) 2,060 9.1 -2.4°
Drops below altitude 10° 06:25:33 10° 110° (ESE) 2,591 9.8 -3.4°
Sets 06:28:48 0° 127° (SE) 3,511 10.6 -4.1°
